Weather History for Nenana, AK

Change the Weather History Date:

Friday, July 5, 2013

  Actual Average Record
Temperature  
Mean Temperature 62 °F -  
Max Temperature 69 °F 74 °F 82 °F (1958)
Min Temperature 54 °F 49 °F 44 °F (1973)
Degree Days  
Heating Degree Days 4    
Growing Degree Days 12 (Base 50)    
Moisture  
Dew Point 46 °F    
Average Humidity 72    
Maximum Humidity 100    
Minimum Humidity 43    
Precipitation  
Precipitation 0.01 in - - ()
Sea Level Pressure  
Sea Level Pressure 30.02 in    
Wind  
Wind Speed 3 mph (East)    
Max Wind Speed 10 mph    
Max Gust Speed -    
Visibility 9 miles    
Events Rain    
Averages and records for this station are not official NWS values.
T = Trace of Precipitation, MM = Missing Value Source: NWS Daily Summary

Daily Weather History Graph

Daily Weather History Graph

Search for Another Location

Airport:

Trip Planner

Search our weather history database for the weather conditions in past years. The results will help you decide how hot, cold, wet, or windy it might be!

Date:

Astronomy

Jul. 05, 2013 Rise Set
Actual Time 3:34 AM AKDT 12:25 AM AKDT
Civil Twilight Sun does not rise Sun does not rise
Nautical Twilight Sun does not rise Sun does not rise
Astronomical Twilight Sun does not rise Sun does not rise
Moon 2:28 AM AKDT (7/5) 9:44 PM AKDT (7/5)
Length of Visible Light 24h 00m
Length of Day
20h 50m
Waning Crescent, 5% of the Moon is Illuminated
Jul 5
Waning Crescent
Jul 7
New
Jul 15
First Quarter
Jul 22
Full
Jul 29
Last Quarter

Hourly Weather History & Observations

Time (AKDT) Temp. Dew Point Humidity Pressure Visibility Wind Dir Wind Speed Gust Speed Precip Events Conditions
12:53 AM 48.9 °F 48.0 °F 97% 30.01 in 10.0 mi East 3.5 mph - 0.01 in Rain Light Rain
1:53 AM 48.0 °F 46.9 °F 96% 30.02 in 10.0 mi Calm Calm - 0.00 in   Partly Cloudy
2:53 AM 46.0 °F 46.0 °F 100% 30.03 in 4.0 mi Calm Calm - N/A   Partly Cloudy
3:53 AM 46.9 °F 46.9 °F 100% 30.03 in 10.0 mi Calm Calm - 0.00 in   Scattered Clouds
4:51 AM 46.4 °F 44.6 °F 93% 30.01 in 2.5 mi Calm Calm - N/A   Overcast
4:53 AM 46.0 °F 46.0 °F 100% 30.04 in 4.0 mi Calm Calm - N/A   Overcast
5:53 AM 48.0 °F 46.9 °F 96% 30.04 in 10.0 mi Calm Calm - N/A   Mostly Cloudy
6:53 AM 48.9 °F 48.0 °F 97% 30.05 in 10.0 mi Calm Calm - N/A   Overcast
7:53 AM 50.0 °F 48.0 °F 93% 30.05 in 10.0 mi Calm Calm - N/A   Overcast
8:53 AM 51.1 °F 48.0 °F 89% 30.05 in 10.0 mi Calm Calm - N/A   Overcast
9:53 AM 54.0 °F 48.0 °F 80% 30.05 in 10.0 mi Calm Calm - N/A   Overcast
10:53 AM 55.9 °F 46.9 °F 72% 30.04 in 10.0 mi Calm Calm - N/A   Overcast
11:53 AM 57.9 °F 46.0 °F 65% 30.03 in 10.0 mi Calm Calm - N/A   Overcast
12:53 PM 59.0 °F 44.1 °F 58% 30.02 in 10.0 mi Calm Calm - N/A   Scattered Clouds
1:53 PM 61.0 °F 44.1 °F 54% 30.01 in 10.0 mi Variable 3.5 mph - N/A   Mostly Cloudy
2:53 PM 64.0 °F 44.1 °F 48% 29.99 in 10.0 mi Variable 4.6 mph - N/A   Clear
3:53 PM 66.0 °F 44.1 °F 45% 29.98 in 10.0 mi WSW 3.5 mph - N/A   Clear
4:53 PM 64.9 °F 42.1 °F 43% 29.97 in 10.0 mi Calm Calm - N/A   Clear
5:53 PM 66.0 °F 45.0 °F 47% 29.95 in 10.0 mi East 6.9 mph - N/A   Partly Cloudy
6:53 PM 64.0 °F 45.0 °F 50% 29.95 in 10.0 mi Variable 6.9 mph - N/A   Mostly Cloudy
7:53 PM 63.0 °F 46.0 °F 54% 29.94 in 10.0 mi East 9.2 mph - N/A   Scattered Clouds
8:53 PM 63.0 °F 45.0 °F 52% 29.94 in 10.0 mi East 6.9 mph - N/A   Mostly Cloudy
9:53 PM 63.0 °F 45.0 °F 52% 29.93 in 10.0 mi Calm Calm - N/A   Partly Cloudy
10:53 PM 59.0 °F 46.0 °F 62% 29.93 in 10.0 mi ENE 4.6 mph - N/A   Partly Cloudy
11:53 PM 55.0 °F 45.0 °F 69% 29.93 in 10.0 mi ENE 4.6 mph - N/A   Clear